Regional Weather Roundup
Issued by NWS

Home | Current Version | Previous Version | Graphics & Text | Print | Product List | Glossary On
Versions: 1 2 3 4 5 6 7 8 9 10 11 12 13 14 15 16 17 18 19 20 21 22 23 24 25 26 27 28 29 30 31 32 33 34 35 36 37 38 39 40 41 42 43 44 45 46 47 48 49 50
000
ASUS43 KBIS 290102
RWRND

NORTH DAKOTA REGIONAL WEATHER ROUNDUP
NATIONAL WEATHER SERVICE BISMARCK ND
800 PM CDT WED SEP 28 2016

NOTE: "FAIR" INDICATES FEW OR NO CLOUDS BELOW 12,000 FEET WITH NO
SIGNIFICANT WEATHER AND/OR OBSTRUCTIONS TO VISIBILITY.


NDZ001>003-009>011-017-290200-
NORTHWEST NORTH DAKOTA

CITY           SKY/WX    TMP DP  RH WIND       PRES   REMARKS
WILLISTON      CLEAR     67  48  50 SE10      30.25R
MINOT          CLEAR     57  44  62 E8        30.32R
MINOT AFB      CLEAR     54  42  64 SE8       30.31R
$$

NDZ018>021-031>035-040>046-290200-
SOUTHWEST NORTH DAKOTA

CITY           SKY/WX    TMP DP  RH WIND       PRES   REMARKS
BISMARCK       CLEAR     56  47  71 E9        30.33R
DICKINSON      CLEAR     58  40  51 E10       30.27S
GARRISON         N/A     57  43  59 E9        30.31R
HETTINGER ARPT CLEAR     63  43  48 E10       30.30R
$$

NDZ004>008-012>016-024-026-027-054-290200-
NORTHEAST NORTH DAKOTA

CITY           SKY/WX    TMP DP  RH WIND       PRES   REMARKS
GRAND FORKS    PTCLDY    51  46  83 N5        30.37R
GRND FRKS AFB  CLEAR     53  46  76 E2        30.37S
DEVILS LAKE    CLEAR     52  47  83 CALM      30.37R
$$

NDZ022-023-025-028>030-036>039-047>053-290200-
SOUTHEAST NORTH DAKOTA

CITY           SKY/WX    TMP DP  RH WIND       PRES   REMARKS
FARGO          CLEAR     55  46  71 NE8       30.36R
JAMESTOWN      CLEAR     52  45  77 E6        30.35R HAZE
$$





USA.gov is the U.S. government's official web portal to all federal, state and local government web resources and services.